TimeCDT,TemperatureF,Dew PointF,Humidity,Sea Level PressureIn,VisibilityMPH,Wind Direction,Wind SpeedMPH,Gust SpeedMPH,PrecipitationIn,Events,Conditions,WindDirDegrees,DateUTC
12:03 AM,55.4,55.4,100,30.16,1.8,SE,3.5,-,N/A,,Clear,130,2013-08-24 05:03:00
12:08 AM,57.2,57.2,100,30.16,4.0,SE,4.6,-,N/A,,Clear,140,2013-08-24 05:08:00
12:18 AM,57.2,57.2,100,30.16,10.0,SE,4.6,-,N/A,,Clear,140,2013-08-24 05:18:00
12:58 AM,55.8,55.4,99,30.17,10.0,ESE,3.5,-,N/A,,Clear,110,2013-08-24 05:58:00
1:58 AM,55.9,55.4,98,30.17,10.0,SE,4.6,-,N/A,,Clear,130,2013-08-24 06:58:00
2:58 AM,54.3,53.2,96,30.19,10.0,ESE,3.5,-,N/A,,Clear,120,2013-08-24 07:58:00
3:58 AM,53.8,53.6,99,30.20,10.0,SSE,4.6,-,N/A,,Clear,150,2013-08-24 08:58:00
4:58 AM,52.3,52.0,99,30.22,10.0,SE,4.6,-,N/A,,Clear,130,2013-08-24 09:58:00
5:58 AM,52.0,51.6,99,30.23,10.0,SSE,3.5,-,N/A,,Partly Cloudy,150,2013-08-24 10:58:00
6:58 AM,53.2,53.2,100,30.22,10.0,SE,4.6,-,N/A,,Clear,130,2013-08-24 11:58:00
7:58 AM,62.6,53.6,72,30.24,10.0,Variable,4.6,-,N/A,,Partly Cloudy,0,2013-08-24 12:58:00
8:58 AM,69.8,53.6,56,30.23,10.0,SSE,8.1,-,N/A,,Scattered Clouds,160,2013-08-24 13:58:00
9:58 AM,73.4,55.4,53,30.24,10.0,SSE,6.9,-,N/A,,Mostly Cloudy,150,2013-08-24 14:58:00
10:58 AM,77.0,57.2,50,30.22,10.0,SE,10.4,-,N/A,,Mostly Cloudy,140,2013-08-24 15:58:00
11:58 AM,77.0,62.6,61,30.22,10.0,SSE,6.9,-,N/A,,Overcast,160,2013-08-24 16:58:00
12:58 PM,80.6,66.2,61,30.20,10.0,SSE,9.2,-,N/A,,Overcast,150,2013-08-24 17:58:00
1:58 PM,80.6,66.2,61,30.19,10.0,SE,10.4,-,N/A,,Mostly Cloudy,140,2013-08-24 18:58:00
2:58 PM,82.4,68.0,62,30.17,10.0,SSE,11.5,-,N/A,,Scattered Clouds,150,2013-08-24 19:58:00
3:58 PM,84.2,68.0,58,30.13,10.0,SE,12.7,-,N/A,,Partly Cloudy,140,2013-08-24 20:58:00
4:58 PM,83.7,69.1,61,30.13,10.0,SE,11.5,-,N/A,,Clear,140,2013-08-24 21:58:00
5:58 PM,82.4,69.3,64,30.13,10.0,SSE,6.9,-,N/A,,Clear,160,2013-08-24 22:58:00
6:58 PM,80.6,68.9,67,30.12,10.0,SSE,9.2,-,N/A,,Clear,160,2013-08-24 23:58:00
7:58 PM,76.6,68.2,75,30.12,10.0,SE,8.1,-,N/A,,Clear,130,2013-08-25 00:58:00
8:58 PM,74.5,67.5,79,30.13,10.0,SE,5.8,-,N/A,,Clear,140,2013-08-25 01:58:00
9:58 PM,73.8,67.1,80,30.13,10.0,SSE,5.8,-,N/A,,Clear,150,2013-08-25 02:58:00
10:58 PM,72.9,66.7,81,30.12,10.0,SE,4.6,-,N/A,,Clear,140,2013-08-25 03:58:00
11:58 PM,75.2,67.3,76,30.11,10.0,SSE,8.1,-,N/A,,Partly Cloudy,160,2013-08-25 04:58:00